Location: G�ndlingen
(48.0142°N, 7.6396°E)
Time: 18:14:46
(UTC+00:00)

Cosmos 1624 Rocket - Pass Details

Date: 05 July 2020
Orbit: 758 x 783 km, 74.0° (Epoch: 13 August)

Event Time Altitude Azimuth Distance (km) Brightness Sun altitude
Rises 22:06:31 0° 339° (NNW) 3,249 9.1 -16.6°
Reaches altitude 10° 22:08:56 10° 343° (NNW) 2,314 7.8 -16.8°
Maximum altitude 22:14:09 63° 64° (ENE) 854 4.2 -17.1°
Enters shadow 22:16:54 27° 137° (SE) 1,424 4.9 -17.2°
